Location: Prairie View Elementary School
(39.8322°N, 99.5698°W)
Time: 00:55:55
(UTC+00:00)

Cosmos 1891 Rocket - Pass Details

Date: 08 December 2019
Orbit: 933 x 1019 km, 82.9° (Epoch: 26 January)

Event Time Altitude Azimuth Distance (km) Brightness Sun altitude
Rises 11:14:55 0° 192° (SSW) 3,741 7.5 -28.4°
Reaches altitude 10° 11:17:29 10° 195° (SSW) 2,790 6.8 -27.9°
Maximum altitude 11:23:53 69° 279° (W) 1,072 4.4 -26.7°
Drops below altitude 10° 11:30:14 10° 2° (N) 2,764 6.8 -25.5°
Sets 11:32:46 0° 5° (N) 3,705 7.5 -25.0°
